weather.gov     
National Weather Service

Terminal Aerodrome Forecast
NWS Homepage
This page is being discontinued on March 12, 2014.
The same data is available at this site. Please update your bookmarks.
Thank you, and we apologize for the inconvenience.
Please send an email to SR-SRH.Webmaster@noaa.gov with any concerns.


Current Version
Previous Version:    01  02  03  04  05  06  07  08  09  10  11  12  13  14  15  16  17  18  19  20  21  22  23  24  25  26  27  28  29  30  
   31  32  33  34  35  36  37  38  39  40  41  42  43  44  45  46  47  
[Printable]
168
FTUS43 KOAX 011729
TAFOFK
TAF
KOFK 011729Z 0118/0218 20006KT P6SM SCT100 SCT250
     FM012100 33004KT P6SM BKN050 BKN250
     FM020900 34008KT P6SM OVC050
      TEMPO 0212/0215 6SM -RA OVC050
     FM021500 34014KT P6SM OVC007
      TEMPO 0216/0218 4SM -RA OVC007=




168
FTUS43 KOAX 011729
TAFOFK
TAF
KOFK 011729Z 0118/0218 20006KT P6SM SCT100 SCT250
     FM012100 33004KT P6SM BKN050 BKN250
     FM020900 34008KT P6SM OVC050
      TEMPO 0212/0215 6SM -RA OVC050
     FM021500 34014KT P6SM OVC007
      TEMPO 0216/0218 4SM -RA OVC007=


U.S. Dept. of Commerce
NOAA National Weather Service
1325 East West Highway
Silver Spring, MD 20910
E-mail: w-nws.webmaster@noaa.gov
Page last modified: May 16, 2007
NATIONAL WEATHER SERVICE: for Safety, for Work, for Fun - FOR LIFE